Wind_Speed
4 4 5 5 5 6 6 7 7 7 6 4 4 3 4 3 2 3 3 2 2 2 1 1 0 1 1 1 1 1 1 1 2 3 3 3 3 3 3 2 3 3 2 1 1 1 1 1 2
4 5 5 6 6 6 6 7 7 7 6 5 5 4 4 3 3 3 3 2 2 2 1 0 0 0 1 1 1 1 2 1 2 3 3 3 3 2 2 2 2 2 2 2 2 2 2 2 2
6 6 6 7 7 6 6 6 7 7 7 6 5 4 4 4 4 4 3 3 2 2 1 1 1 0 0 1 1 2 2 2 2 2 3 3 3 2 2 2 2 2 2 2 2 3 3 3 3
7 7 8 8 7 6 5 6 6 6 7 7 6 5 4 5 5 4 3 3 3 2 2 2 1 1 0 1 2 2 2 2 2 2 3 3 3 3 3 2 3 3 3 3 3 3 3 3 3
8 8 8 8 8 7 7 6 6 6 6 7 6 5 5 5 5 4 4 4 4 3 3 2 3 2 2 2 1 2 3 3 3 3 3 3 3 3 3 3 3 3 4 3 3 3 4 4 3
8 9 9 8 8 8 7 6 5 6 6 6 6 5 5 5 5 5 4 4 4 4 3 3 3 3 2 2 2 2 3 3 3 3 3 3 3 4 4 4 4 4 4 4 4 4 4 4 4
9 9 10 10 9 9 7 6 5 5 5 6 6 6 6 6 6 5 4 4 4 4 4 4 4 3 3 2 2 3 3 3 3 4 3 3 3 4 4 4 5 5 5 4 4 4 4 4 5
10 10 10 10 9 9 8 6 5 6 6 7 7 6 6 6 6 6 5 5 5 5 5 5 5 5 5 5 4 3 3 4 4 4 4 4 4 4 5 5 5 5 5 4 4 4 4 4 5
11 10 10 10 9 9 8 7 7 6 7 8 7 7 6 7 6 7 6 6 6 6 6 6 6 5 5 5 4 4 4 4 4 4 4 5 5 5 5 5 5 5 5 5 4 5 5 4 4
11 10 10 11 10 9 9 8 7 7 7 8 8 7 8 7 7 7 7 6 6 6 6 6 7 7 5 4 5 5 4 4 4 5 5 6 6 6 5 5 4 5 5 5 5 4 4 4 4
12 11 10 11 10 9 9 9 8 8 8 8 8 8 9 8 8 8 7 7 6 6 6 6 6 7 6 5 5 6 5 4 4 5 6 6 6 6 5 5 5 5 5 5 5 4 4 5 4
12 12 10 9 10 9 10 9 10 10 10 9 9 9 9 9 9 9 9 8 7 6 6 6 6 6 6 6 6 5 5 5 5 5 6 6 6 6 6 5 5 5 5 5 5 5 4 5 4
11 11 11 10 10 10 10 11 11 11 11 11 11 10 9 9 10 10 10 10 9 8 7 6 5 5 6 6 6 5 5 6 5 6 6 6 6 6 6 6 6 5 5 5 5 5 5 5 5
10 10 11 10 10 10 10 11 12 12 11 11 11 10 10 10 10 10 11 10 9 9 8 7 6 6 6 7 6 6 6 6 6 6 6 6 6 6 5 6 5 5 5 5 5 5 5 5 5
9 9 9 10 10 10 10 11 11 11 11 11 11 11 10 10 10 11 10 10 9 8 7 6 6 7 7 7 7 7 7 7 7 7 7 6 6 6 6 5 5 5 6 5 6 6 6 6 6
9 9 9 9 9 10 10 10 10 10 11 11 11 11 11 10 10 10 10 9 9 8 8 8 7 8 7 7 7 8 8 8 8 8 7 7 6 6 6 5 6 6 6 5 6 6 6 6 6
8 8 8 9 8 8 9 10 10 10 11 10 10 10 10 10 10 10 10 9 9 8 8 8 8 8 7 7 8 8 9 8 8 8 8 7 6 6 6 5 6 6 6 6 6 6 6 6 6
7 7 8 8 7 7 7 7 8 9 9 9 9 10 10 10 10 10 10 10 9 9 8 8 8 8 8 8 8 8 9 9 9 8 8 7 7 6 6 6 6 6 6 6 6 6 6 6 6
7 7 7 7 6 6 6 6 7 8 8 8 9 9 9 9 9 9 9 10 10 9 9 8 8 8 9 8 8 9 9 10 9 9 8 7 7 7 7 7 6 6 6 6 6 6 6 6 6
6 6 6 6 5 6 6 6 7 8 8 7 7 8 8 9 8 8 9 10 10 10 9 9 9 9 9 9 9 9 9 9 9 9 9 8 8 7 8 8 7 6 7 7 7 7 7 7 7
5 5 5 5 6 6 6 6 7 8 7 7 7 7 8 8 9 8 9 9 10 10 10 10 10 10 10 10 10 9 9 9 10 10 10 9 9 8 8 8 8 7 7 7 7 8 8 8 8
5 5 5 5 6 6 7 6 6 7 7 7 7 8 8 8 9 9 9 9 9 10 10 11 11 11 11 10 10 9 10 10 10 10 10 9 9 9 9 9 9 8 7 7 8 8 8 9 9
5 5 5 6 6 6 6 7 6 7 7 7 7 8 9 9 9 9 9 9 10 10 11 11 11 11 11 11 10 10 10 10 10 10 9 9 9 9 10 10 9 8 8 8 8 8 9 9 10
6 6 6 7 7 6 7 8 7 7 6 6 7 8 9 8 8 9 9 9 10 10 10 10 10 11 12 11 11 11 11 10 10 10 10 10 10 10 10 10 10 10 9 10 10 10 10 10 10
7 7 7 7 7 7 7 7 6 6 6 6 7 8 8 7 8 8 9 10 10 10 10 10 10 11 12 11 11 11 11 11 10 10 10 10 10 10 11 11 11 10 10 10 10 11 11 11 11
7 8 8 8 8 7 7 6 6 6 6 5 5 6 7 7 7 9 10 10 11 11 11 11 11 12 11 11 11 11 11 11 11 11 10 10 10 10 10 10 10 11 11 11 11 12 12 12 13
8 8 8 8 8 8 7 6 5 5 5 5 5 6 6 7 8 9 10 10 11 11 12 12 12 12 12 12 12 12 11 11 12 11 11 11 11 11 11 11 11 11 12 12 12 12 12 12 12
9 9 9 8 8 8 8 7 6 5 5 5 5 6 7 7 8 8 10 10 11 11 12 12 12 12 12 13 12 12 12 12 12 12 12 12 12 12 12 13 12 12 13 13 13 13 14 14 14
10 10 9 9 9 9 8 7 7 6 6 6 6 7 7 7 8 8 9 10 10 11 12 12 12 12 12 13 13 13 13 13 13 13 13 13 13 13 13 13 13 14 14 14 14 14 14 15 15
10 10 10 10 9 9 9 7 7 7 7 8 8 8 8 7 8 9 10 10 11 11 12 12 13 12 12 13 13 13 13 13 14 14 14 14 14 14 14 14 14 14 14 14 15 15 15 16 16
Wind_Direction
207 193 197 203 210 219 210 200 198 197 191 187 185 188 188 197 204 199 191 168 154 167 179 203 120 81 73 50 29 21 2 12 8 6 8 8 5 3 1 357 349 346 339 326 296 304 303 282 288
216 202 203 208 219 226 223 206 202 202 193 188 194 200 207 217 225 220 212 180 173 195 221 353 317 80 78 57 17 3 6 353 352 360 8 10 6 2 1 360 354 350 335 318 299 292 293 301 292
218 215 213 219 225 230 224 207 205 202 203 202 204 205 215 220 224 227 225 205 200 217 248 283 318 234 83 27 359 346 358 348 348 354 3 6 5 5 3 356 352 349 335 311 299 296 292 293 287
226 218 222 227 230 227 216 203 201 194 205 211 208 206 220 217 215 222 227 222 232 246 257 261 260 240 257 328 317 351 350 353 348 346 349 351 353 353 354 348 341 339 330 312 299 294 289 284 281
228 222 231 229 229 219 217 214 207 200 204 208 210 211 220 212 214 222 229 236 240 242 252 261 247 248 258 301 325 353 342 330 336 335 334 334 337 335 337 337 332 328 324 318 312 302 292 282 276
228 226 231 231 231 225 222 216 208 199 201 211 218 215 212 220 221 224 232 241 247 246 258 267 255 246 257 265 286 333 340 331 336 334 331 332 332 331 330 328 328 325 320 315 311 306 292 284 274
229 226 231 234 236 234 228 226 223 208 216 225 225 218 216 221 224 228 238 245 245 251 264 263 257 254 258 259 279 291 311 323 320 320 322 330 329 328 329 327 326 327 324 319 314 307 291 280 277
230 231 231 233 233 233 234 236 231 225 233 236 232 223 223 224 227 231 241 247 247 257 266 267 264 261 268 270 277 283 298 305 301 302 308 315 317 319 317 318 321 325 327 325 319 310 293 282 277
228 233 234 234 234 233 236 241 245 243 234 234 234 230 229 230 229 233 241 247 255 261 260 261 266 270 272 267 268 281 288 294 300 298 297 303 306 310 310 308 315 320 322 322 320 312 301 291 284
234 238 241 237 236 235 237 242 247 246 239 238 240 238 237 241 240 236 243 251 258 265 265 263 264 268 268 273 273 281 291 290 299 301 298 299 302 304 308 309 312 315 316 318 318 312 307 298 288
235 235 235 231 234 238 240 241 240 242 240 240 245 246 243 247 246 241 244 251 259 264 261 257 256 258 260 270 275 277 284 285 292 297 298 298 299 301 305 309 308 312 314 313 314 308 304 296 287
237 234 236 233 237 241 238 240 239 240 241 243 247 248 249 248 244 240 243 248 254 256 256 254 254 256 263 267 272 274 280 279 286 290 295 297 296 297 300 308 310 310 314 315 311 305 299 294 287
239 239 240 240 241 241 241 241 240 243 248 249 249 248 250 252 246 242 243 246 254 256 255 260 255 256 260 263 267 275 274 273 277 285 292 293 291 294 297 300 304 308 309 310 312 302 295 292 289
239 239 240 241 244 245 242 242 244 245 249 250 248 250 251 251 248 246 246 249 253 252 255 260 258 254 255 264 268 267 267 271 272 280 287 290 286 290 293 295 299 305 306 306 307 301 296 292 281
246 245 244 246 249 244 237 239 245 247 248 249 247 245 245 245 245 244 244 248 252 252 254 259 260 257 257 263 264 262 270 274 275 278 281 281 285 288 288 295 301 306 305 306 305 300 293 287 281
243 248 248 251 249 242 239 238 241 243 244 246 247 247 244 242 243 241 237 243 248 255 260 262 266 261 259 260 260 263 268 272 278 276 276 276 277 280 284 290 298 305 307 307 303 300 296 292 290
237 245 245 245 246 242 243 241 240 239 241 245 244 246 245 242 244 240 237 242 249 255 260 261 263 260 257 266 265 264 267 272 275 275 272 273 271 274 279 285 295 303 307 309 305 303 300 299 301
234 240 247 251 249 246 244 245 239 235 240 245 247 247 245 241 244 243 242 247 250 252 255 254 257 258 259 267 267 267 267 267 270 273 273 267 268 272 279 284 290 297 301 304 306 305 302 302 302
234 243 254 259 258 251 250 253 246 240 241 247 249 247 243 242 244 244 245 246 247 251 252 253 257 257 257 260 263 265 267 268 266 266 270 270 269 272 278 286 291 292 297 303 301 298 302 305 304
249 249 253 259 265 259 256 245 246 241 239 243 243 242 242 244 245 242 246 246 246 248 251 252 254 259 260 263 264 267 269 266 266 266 267 269 273 274 275 280 285 287 292 298 300 298 300 304 302
259 258 255 261 266 263 256 245 245 244 244 248 248 247 250 254 252 247 244 242 242 244 249 252 254 256 260 265 264 265 267 269 266 264 265 267 268 271 272 278 282 285 288 293 299 300 298 298 298
252 259 258 259 263 260 260 255 248 251 249 253 252 252 252 252 249 249 247 243 244 246 249 252 254 256 261 261 259 264 266 268 265 263 263 263 268 272 270 274 279 281 284 291 298 300 298 298 297
254 250 256 267 267 258 260 260 250 254 257 257 252 252 250 249 250 248 246 246 245 246 250 254 255 257 260 259 259 262 266 266 263 261 261 263 268 272 271 272 277 279 281 285 292 298 298 297 295
250 253 259 268 273 266 267 267 260 257 261 257 251 249 247 248 247 249 252 253 248 244 247 254 255 257 260 258 259 261 263 264 260 260 262 265 268 270 272 273 274 276 277 282 288 291 292 291 291
253 254 263 264 264 269 269 268 263 264 269 257 254 252 246 244 247 252 254 254 252 248 248 250 256 258 258 255 256 260 262 262 261 262 263 267 270 272 274 274 274 276 278 282 285 287 288 287 289
257 256 264 270 269 267 267 264 260 264 270 258 255 255 248 247 249 251 254 255 252 248 251 255 259 259 253 253 257 259 261 261 260 263 265 267 272 274 275 277 277 278 279 280 282 283 285 285 287
262 257 265 272 272 271 264 259 258 259 262 250 248 251 252 255 253 249 252 253 251 248 251 256 261 258 251 254 259 261 261 261 262 264 266 270 272 273 275 277 277 279 279 279 282 285 286 286 287
258 263 263 269 274 275 264 257 257 253 252 248 248 254 255 262 261 256 256 257 253 250 250 255 259 256 252 254 256 259 260 261 263 264 265 269 271 273 273 274 275 277 278 278 280 282 286 288 287
258 259 261 266 272 273 272 264 260 257 260 254 256 257 259 264 263 261 257 257 255 255 255 254 259 257 254 255 256 260 260 259 260 262 264 266 269 269 272 274 275 276 278 279 281 282 285 287 288
261 261 261 262 267 273 277 278 265 266 266 265 267 268 265 263 262 263 261 257 255 257 258 256 260 257 258 256 255 259 261 261 261 261 263 266 268 270 272 273 274 275 277 280 282 283 285 286 287
Height
5891 5891 5892 5893 5894 5893 5893 5893 5893 5893 5894 5895 5895 5896 5897 5898 5899 5901 5898 5897 5897 5897 5897 5896 5896 5896 5895 5895 5895 5894 5894 5893 5893 5892 5891 5890 5889 5889 5888 5887 5886 5885 5884 5884 5883 5883 5882 5882 5882
5890 5890 5892 5892 5892 5892 5892 5891 5892 5892 5893 5894 5894 5895 5896 5897 5897 5898 5897 5897 5897 5897 5897 5896 5896 5896 5895 5895 5895 5895 5894 5893 5893 5892 5891 5890 5890 5889 5888 5887 5886 5885 5884 5883 5883 5882 5882 5882 5881
5889 5890 5891 5891 5890 5891 5890 5890 5891 5891 5892 5893 5894 5895 5896 5896 5897 5897 5896 5897 5897 5897 5897 5896 5896 5896 5895 5895 5895 5895 5894 5893 5893 5892 5891 5891 5890 5889 5888 5887 5886 5885 5884 5883 5882 5882 5881 5881 5881
5888 5889 5890 5890 5889 5890 5890 5890 5890 5891 5892 5893 5893 5894 5895 5896 5896 5897 5896 5896 5896 5896 5896 5896 5896 5896 5895 5895 5895 5895 5894 5893 5893 5892 5891 5890 5890 5889 5887 5887 5886 5885 5884 5883 5882 5881 5881 5880 5880
5887 5888 5888 5888 5888 5888 5889 5888 5889 5890 5891 5892 5892 5893 5894 5895 5896 5896 5896 5896 5896 5896 5896 5896 5895 5895 5895 5895 5895 5894 5894 5893 5892 5892 5891 5890 5889 5888 5887 5886 5885 5884 5883 5882 5881 5881 5880 5880 5879
5885 5886 5887 5887 5887 5887 5887 5888 5888 5889 5890 5891 5892 5893 5893 5895 5895 5895 5895 5896 5896 5896 5895 5895 5895 5895 5895 5894 5894 5894 5893 5892 5892 5891 5890 5889 5889 5888 5887 5886 5885 5884 5883 5882 5881 5880 5879 5879 5878
5884 5885 5885 5886 5886 5886 5887 5887 5887 5888 5889 5890 5891 5892 5893 5894 5894 5894 5894 5895 5895 5895 5895 5894 5894 5894 5894 5894 5893 5893 5893 5892 5892 5891 5890 5889 5888 5887 5887 5886 5885 5883 5882 5881 5880 5879 5878 5878 5877
5882 5884 5883 5884 5885 5885 5885 5886 5886 5887 5888 5889 5890 5891 5892 5893 5893 5893 5893 5894 5894 5894 5894 5894 5894 5894 5893 5893 5893 5892 5892 5891 5891 5890 5889 5889 5888 5887 5886 5885 5884 5883 5882 5881 5880 5879 5878 5877 5876
5880 5882 5881 5882 5883 5884 5884 5885 5885 5886 5887 5887 5888 5889 5891 5891 5891 5892 5892 5893 5893 5893 5893 5892 5893 5892 5892 5892 5892 5892 5891 5891 5890 5889 5888 5888 5887 5886 5885 5884 5883 5882 5881 5880 5879 5878 5877 5876 5875
5878 5879 5880 5880 5881 5882 5882 5883 5884 5885 5885 5886 5887 5888 5888 5889 5890 5890 5891 5891 5891 5891 5891 5891 5891 5891 5891 5891 5891 5890 5890 5889 5889 5888 5888 5887 5886 5885 5884 5883 5882 5881 5880 5879 5878 5877 5876 5875 5875
5876 5877 5877 5878 5879 5880 5881 5881 5882 5883 5884 5884 5885 5886 5886 5887 5888 5889 5889 5890 5890 5890 5890 5890 5889 5889 5889 5889 5889 5889 5889 5888 5888 5887 5886 5886 5885 5884 5883 5882 5881 5880 5879 5878 5877 5876 5875 5874 5874
5873 5874 5875 5876 5877 5878 5878 5879 5880 5881 5882 5882 5883 5884 5884 5885 5886 5887 5887 5888 5888 5889 5888 5888 5888 5888 5888 5888 5888 5887 5887 5887 5886 5886 5885 5884 5883 5883 5882 5881 5880 5879 5878 5877 5876 5875 5874 5873 5873
5871 5872 5873 5874 5875 5875 5876 5877 5878 5879 5880 5880 5881 5881 5882 5883 5884 5885 5885 5886 5886 5886 5887 5886 5886 5886 5886 5886 5886 5886 5886 5886 5885 5885 5884 5883 5882 5881 5880 5879 5878 5878 5877 5876 5875 5874 5873 5872 5872
5869 5870 5871 5872 5872 5873 5874 5874 5875 5876 5877 5878 5878 5879 5880 5880 5882 5882 5883 5883 5884 5884 5885 5885 5884 5884 5885 5885 5885 5885 5884 5884 5884 5883 5882 5881 5880 5880 5879 5878 5877 5877 5876 5875 5874 5873 5872 5871 5871
5867 5868 5869 5870 5870 5870 5872 5872 5873 5873 5874 5875 5876 5877 5877 5878 5879 5880 5880 5881 5881 5881 5882 5883 5882 5882 5883 5883 5883 5883 5883 5882 5882 5881 5881 5880 5879 5878 5878 5877 5876 5875 5874 5874 5873 5872 5871 5871 5870
5865 5866 5867 5867 5868 5868 5870 5870 5871 5871 5872 5872 5873 5874 5875 5876 5877 5877 5878 5878 5879 5879 5880 5880 5880 5880 5880 5881 5881 5881 5881 5880 5880 5879 5879 5878 5878 5877 5876 5876 5875 5874 5873 5872 5872 5871 5870 5869 5868
5864 5865 5865 5866 5865 5866 5867 5867 5868 5868 5869 5870 5871 5872 5873 5873 5874 5875 5875 5876 5877 5877 5878 5878 5878 5878 5878 5878 5879 5879 5878 5878 5878 5877 5877 5876 5876 5875 5875 5874 5873 5873 5872 5871 5870 5870 5869 5868 5867
5862 5863 5863 5863 5863 5864 5864 5865 5866 5866 5867 5867 5868 5869 5870 5871 5871 5872 5873 5874 5874 5875 5875 5876 5876 5876 5876 5876 5876 5876 5876 5876 5876 5876 5875 5875 5874 5874 5873 5872 5872 5871 5871 5870 5869 5868 5867 5867 5866
5860 5861 5861 5862 5861 5862 5862 5863 5863 5864 5864 5865 5866 5867 5868 5868 5869 5870 5870 5871 5872 5873 5873 5873 5874 5874 5874 5874 5874 5874 5874 5874 5873 5873 5873 5873 5872 5872 5871 5871 5870 5870 5869 5868 5867 5867 5866 5865 5864
5859 5859 5859 5860 5860 5860 5860 5861 5861 5861 5862 5863 5864 5865 5866 5866 5866 5867 5868 5869 5870 5870 5870 5871 5871 5872 5872 5872 5872 5872 5871 5871 5871 5871 5871 5871 5870 5870 5870 5869 5868 5868 5867 5867 5866 5865 5864 5864 5863
5857 5858 5858 5858 5858 5858 5859 5860 5860 5860 5860 5861 5861 5862 5863 5864 5864 5865 5866 5866 5867 5867 5868 5869 5869 5869 5869 5869 5869 5869 5869 5869 5869 5869 5868 5868 5868 5868 5867 5867 5867 5866 5866 5865 5864 5863 5863 5862 5861
5856 5856 5856 5856 5857 5857 5857 5858 5858 5858 5858 5859 5859 5860 5861 5861 5861 5862 5863 5864 5864 5865 5865 5866 5866 5866 5867 5867 5867 5867 5867 5867 5866 5866 5866 5866 5866 5865 5865 5865 5864 5864 5864 5863 5862 5861 5861 5860 5859
5854 5854 5855 5855 5855 5855 5855 5855 5857 5856 5856 5857 5857 5857 5858 5858 5859 5859 5860 5861 5861 5862 5863 5863 5863 5864 5864 5864 5864 5864 5864 5864 5864 5864 5863 5863 5863 5863 5863 5863 5862 5862 5862 5861 5860 5859 5858 5858 5857
5853 5854 5853 5853 5853 5854 5854 5853 5854 5854 5854 5854 5855 5855 5855 5856 5856 5857 5857 5858 5858 5859 5859 5860 5860 5860 5861 5861 5861 5862 5862 5862 5861 5861 5861 5861 5861 5861 5860 5860 5860 5859 5859 5858 5858 5857 5856 5855 5854
5852 5852 5852 5852 5852 5852 5851 5851 5852 5851 5851 5852 5852 5852 5853 5853 5854 5854 5854 5855 5855 5856 5856 5857 5857 5857 5858 5858 5858 5859 5859 5859 5859 5859 5859 5858 5858 5858 5858 5857 5857 5857 5856 5856 5855 5854 5853 5852 5852
5850 5850 5851 5851 5850 5850 5849 5848 5850 5849 5849 5849 5849 5849 5850 5850 5851 5851 5852 5852 5852 5853 5853 5854 5854 5854 5855 5855 5855 5856 5856 5856 5856 5856 5856 5856 5855 5855 5855 5854 5854 5854 5853 5853 5852 5851 5850 5850 5849
5848 5848 5849 5848 5847 5847 5847 5847 5847 5847 5847 5847 5847 5847 5847 5848 5848 5849 5849 5849 5849 5850 5851 5851 5851 5851 5852 5852 5852 5853 5853 5853 5853 5853 5853 5853 5852 5852 5852 5851 5851 5850 5850 5849 5849 5848 5847 5846 5845
5846 5846 5846 5846 5845 5845 5845 5845 5845 5845 5845 5845 5845 5845 5845 5845 5845 5846 5846 5846 5847 5847 5847 5848 5848 5848 5848 5849 5849 5849 5849 5850 5850 5850 5850 5849 5849 5849 5849 5848 5848 5847 5846 5846 5845 5844 5844 5843 5842
5844 5844 5843 5843 5843 5843 5842 5845 5843 5843 5843 5842 5842 5842 5842 5842 5843 5843 5843 5843 5843 5844 5844 5845 5845 5845 5845 5845 5846 5846 5846 5846 5847 5847 5846 5846 5846 5845 5845 5845 5844 5843 5843 5842 5841 5841 5840 5839 5838
5841 5841 5841 5841 5841 5840 5840 5844 5841 5841 5840 5840 5840 5840 5840 5840 5840 5840 5840 5840 5840 5840 5840 5841 5841 5841 5841 5842 5842 5842 5842 5842 5843 5843 5842 5842 5842 5842 5841 5841 5840 5839 5839 5838 5837 5837 5836 5835 5834